This demonstration page uses our WeatherBlox Daily Observations layout. Learn more.

Left ArrowRight Arrow

Hourly Observations for February 25, 2017

Temp ( °F °C ) Dew Point ( °F °C ) Humidity (%) Winds ( mph kmh ) Pressure ( in mb ) Visibility ( mi km ) Precip ( " mm )
12:31 am 00:31 Mostly Cloudy 17 -8.3 15 -9.4 92 92 SW 10 17 30.24 1024 10 16 0.00 0.00
12:51 am 00:51 Partly Cloudy 18 -8 16 -9 93 93 SW 13 20 30.24 1024 10 16 0.00 0.00
12:53 am 00:53 Partly Cloudy 17 -8.3 15 -9.4 92 92 SW 13 20 30.13 1020 10 16 0.00 0.00
1:53 am 01:53 Cloudy 20 -6.7 18 -7.8 92 92 WSW 8 13 30.10 1019 10 16 0.00 0.00
2:20 am 02:20 Cloudy 21 -6 19 -7 93 93 WSW 8 13 30.18 1022 10 16 0.00 0.00
2:53 am 02:53 Cloudy 23 -5 20 -6.7 88 88 SW 13 20 30.07 1018 10 16 0.00 0.00
3:18 am 03:18 Cloudy 23 -5 19 -7 86 86 WSW 9 15 30.15 1021 10 16 0.00 0.00
3:53 am 03:53 Cloudy 21 -6.1 19 -7.2 92 92 WSW 10 17 30.05 1018 10 16 0.00 0.00
4:13 am 04:13 Cloudy 21 -6.1 18 -7.8 88 88 SW 10 17 30.12 1020 10 16 0.00 0.00
4:53 am 04:53 Cloudy 19 -7.2 17 -8.3 92 92 SW 12 19 30.03 1017 10 16 0.00 0.00
5:53 am 05:53 Cloudy 20 -6.7 18 -7.8 92 92 SW 8 13 29.99 1016 9 14 0.00 0.03
6:53 am 06:53 Cloudy 20 -6.7 17 -8.3 89 89 WSW 9 15 29.98 1015 10 16 0.00 0.00
7:01 am 07:01 Cloudy 20 -6.7 17 -8.3 89 89 SW 10 17 30.06 1018 10 16 0.00 0.00
7:22 am 07:22 Cloudy 21 -6 18 -8 86 86 SW 13 20 30.00 1016 10 16 0.00 0.00
7:53 am 07:53 Cloudy 21 -6.1 18 -7.8 88 88 SW 15 24 29.95 1014 10 16 0.00 0.00
8:53 am 08:53 Cloudy 22 -5.6 18 -7.8 85 85 WSW 15 24 29.94 1014 10 16 0.00 0.00
9:53 am 09:53 Cloudy 24 -4.4 18 -7.8 77 77 WSW 15 24 29.91 1013 10 16 0.00 0.00
10:53 am 10:53 Mostly Sunny 26 -3.3 19 -7.2 75 75 WSW 10 17 29.89 1012 10 16 0.00 0.00
11:53 am 11:53 Sunny 30 -1.1 18 -7.8 61 61 W 15 24 29.86 1011 10 16 0.00 0.00
12:53 pm 12:53 Partly Cloudy 32 0 18 -7.8 56 56 W 13 20 29.82 1010 10 16 0.00 0.00
1:53 pm 13:53 Cloudy 32 0 18 -7.8 56 56 WNW 16 26 29.79 1009 10 16 0.00 0.03
2:53 pm 14:53 Mostly Cloudy 33 0.6 17 -8.3 52 52 WNW 10 17 29.75 1008 10 16 0.00 0.00
3:53 pm 15:53 Cloudy 35 1.7 15 -9.4 44 44 W 20 31 29.72 1007 10 16 0.00 0.00
4:53 pm 16:53 Cloudy 33 0.6 16 -8.9 49 49 WNW 14 22 29.72 1007 10 16 0.00 0.00
5:53 pm 17:53 Cloudy 29 -1.7 18 -7.8 63 63 NW 5 7 29.72 1006 10 16 0.00 0.00
6:53 pm 18:53 Mostly Cloudy 28 -2.2 19 -7.2 69 69 W 7 11 29.71 1006 10 16 0.00 0.00
7:53 pm 19:53 Clear 30 -1.1 19 -7.2 64 64 WSW 14 22 29.69 1005 10 16 0.00 0.00
8:53 pm 20:53 Cloudy 30 -1.1 19 -7.2 64 64 W 14 22 29.70 1006 10 16 0.00 0.00
9:53 pm 21:53 Cloudy 29 -1.7 18 -7.8 63 63 WSW 13 20 29.71 1006 10 16 0.00 0.00
10:53 pm 22:53 Cloudy 30 -1.1 19 -7.2 64 64 WSW 15 24 29.71 1006 10 16 0.00 0.00
11:53 pm 23:53 Cloudy 30 -1.1 20 -6.7 66 66 W 21 33 29.71 1006 10 16 0.00 0.00

Powered by AerisWeather